Terminal Aerodrome Forecast
Issued by NWS Wilmington, OH

Home | Current Version | Previous Version | Text Only | Print | Product List | Glossary On
Versions: 1 2 3 4 5 6 7 8 9 10 11 12 13 14 15 16 17 18 19 20 21 22 23 24 25 26
000
FTUS41 KILN 141500 AAA
TAFILN
TAF AMD
KILN 141500Z 1415/1512 26010KT P6SM VCSH FEW025 OVC110
     FM142200 23012G20KT P6SM VCSH BKN040
     FM150200 24008KT P6SM SCT040
     FM150800 29010KT P6SM FEW040=

USA.gov is the U.S. government's official web portal to all federal, state and local government web resources and services.